Location: Bay Shore Mobile Home Park
(38.5762°N, 75.0841°W)
Time: 04:40:48
(UTC+00:00)

Hubble Space Telescope - Pass Details

Date: 28 January 2026
Orbit: 478 x 480 km, 28.5° (Epoch: 8 February)

Event Time Altitude Azimuth Distance (km) Brightness Sun altitude
Rises 22:45:02 0° 240° (WSW) 2,510 6.3 -5.8°
Reaches altitude 10° 22:47:46 10° 220° (SW) 1,634 4.3 -6.3°
Maximum altitude 22:50:18 17° 177° (S) 1,251 2.8 -6.8°
Drops below altitude 10° 22:52:50 10° 135° (SE) 1,636 3.0 -7.2°
Enters shadow 22:55:02 - 117° (ESE) 2,325 3.6 -7.7°
